CZ-3A DEB, 35549

Orbit data source: Space-Track

CZ-3A DEB, 35549 is space debris in HEO originally from a launch on Fri, 02 Feb 2007 UTC launched from the Xichang Space Center, China (XSC). Debris objects in space refer to the collection of defunct objects orbiting the Earth. Examples of debris include non-operational satellites, rocket bodies, and fragments generated from explosions, collisions, or faulty payload assembly.

Loading next visibility...
Identifier
35549, 2007-003H
Orbit
HEO
Country
Flag of CNCN / PRC
Related business
Manufacturer
Unknown
Mission
Spacecraft
Bus & Motor
Unknown
Mass
Unknown
Launch date (UTC)
2007-02-02 (19 years ago)
Launch vehicle
Unknown
Launch site
Xichang Space Center, China (XSC)
Object type
Payload
Rocket body
Debris
Shape & HBR
Unknown shape, 0.3 m
Radar Cross Section
Medium (>0.1 m² and <1 m²)

Expand to show TLE details & history
Last TLE update: 2 days ago

TLE from 2 days ago
0 CZ-3A DEB
1 35549U 07003H   26171.01463551  .00073033  00000-0  12550-1 0  9998
2 35549  24.0578  55.3015 5134487 105.5911 314.6871  5.39692551172103
Epoch: 2026-06-20T00:21Z
TLE epoch observation values (Epoch: 2026-06-20T00:21:04.508Z)
Latitude
0.00002°
Longitude
141.80067°
Altitude
5,342.834 km
Speed
6.244 km/s
True Right ascension
03h 41m 13s
True Declination
0° 00' 00"
Sunlit
Object was in daylight at epoch
Visualization orbit readout
Latitude
Unknown
Longitude
Unknown
Altitude
Unknown
Speed
Unknown
Apparent Right ascension
Unknown
Apparent Declination
Unknown
Sunlit
N/A
Visualization observer readout
Local Sidereal Time
23:18:23
Azimuth
Unknown
Elevation
Unknown
Doppler factor
Unknown
Orbital elements
Apogee altitude
14,405.718 km
Perigee altitude
303.564 km
Semi-major axis
13,732.778 km
Eccentricity
0.51345
Inclination
24.0578°
RAAN
55.3015°
Arg. of periapsis
105.5911°
True anomaly
254.39546°
Mean anomaly
314.6871°
Eccentric anomaly
286.47672°
Mean motion
1.34867 °/min
Orbital period
266.93 mins
BSTAR
0.01255
Loading maneuver chart data...
Computing Atmospheric mass density...
Loading historical data...
Loading historical data...
Loading historical data...
Loading historical data...
Loading historical data...
Loading historical data...
Loading historical data...

Documentation

Showing up to 5 results
|